Estación Meteorológica de la Universidad de Murcia
Estación Meteorológica de la Universidad de Murcia
Universidad de Murcia
 

Temperatura y Humedad del sueloTemperatura y Humedad del suelo

 

Temperatura del suelo máxima: 37,2 ºC a las 14:57:00 del día 20/08/2017
Temperatura del suelo mínima: 23 ºC a las 05:20:00 del día 20/08/2017
Humedad del suelo máxima: 24,5 % a las 18:51:00 del día 20/08/2017
Humedad del suelo mínima: 16,3 % a las 10:30:00 del día 20/08/2017

||Temperatura del suelo máxima últimos meses|| ---- ||Temperatura del suelo mínima últimos meses||

----||Humedad del suelo máxima últimos meses|| ---- ||Humedad del suelo mínima últimos meses||


Temperatura del suelo máxima

  • 1 - 37,2 ºC del día 20/08/2017
  • 2 - 37,9 ºC del día 19/08/2017
  • 3 - 40,8 ºC del día 18/08/2017
  • 4 - 40,3 ºC del día 17/08/2017
  • 5 - 40,4 ºC del día 16/08/2017
  • 6 - 38,5 ºC del día 15/08/2017
  • 7 - 36,4 ºC del día 14/08/2017
  • 8 - 36,1 ºC del día 13/08/2017
  • 9 - 36,1 ºC del día 12/08/2017
  • 10 - 36,1 ºC del día 11/08/2017
  • 11 - 33,9 ºC del día 10/08/2017
  • 12 - 40,2 ºC del día 09/08/2017
  • 13 - 44,3 ºC del día 08/08/2017
  • 14 - 40,5 ºC del día 07/08/2017
  • 15 - 38,7 ºC del día 06/08/2017
  • 16 - 42,3 ºC del día 05/08/2017
  • 17 - 42,9 ºC del día 04/08/2017
  • 18 - 44,6 ºC del día 03/08/2017
  • 19 - 41 ºC del día 02/08/2017
  • 20 - 41,3 ºC del día 01/08/2017
  • 21 - 39,4 ºC del día 31/07/2017
  • 22 - 44,1 ºC del día 30/07/2017
  • 23 - 40,9 ºC del día 29/07/2017
  • 24 - 42,7 ºC del día 28/07/2017
  • 25 - 41,6 ºC del día 27/07/2017
  • 26 - 40 ºC del día 26/07/2017
  • 27 - 37,6 ºC del día 25/07/2017
  • 28 - 40,1 ºC del día 24/07/2017
  • 29 - 39,2 ºC del día 23/07/2017
  • 30 - 38,4 ºC del día 22/07/2017
  • 31 - 39,4 ºC del día 21/07/2017
  • 32 - 39,9 ºC del día 20/07/2017
  • 33 - 39,8 ºC del día 19/07/2017
  • 34 - 38,8 ºC del día 18/07/2017
  • 35 - 38,4 ºC del día 17/07/2017
  • 36 - 38,8 ºC del día 16/07/2017
  • 37 - 36,9 ºC del día 15/07/2017
  • 38 - 37,8 ºC del día 14/07/2017
  • 39 - 40,5 ºC del día 13/07/2017
  • 40 - 41,9 ºC del día 12/07/2017
  • 41 - 39,1 ºC del día 11/07/2017
  • 42 - 40,7 ºC del día 10/07/2017
  • 43 - 40,8 ºC del día 09/07/2017
  • 44 - 39 ºC del día 08/07/2017
  • 45 - 33,2 ºC del día 07/07/2017
  • 46 - 37,5 ºC del día 06/07/2017
  • 47 - 35,4 ºC del día 05/07/2017
  • 48 - 35,3 ºC del día 04/07/2017
  • 49 - 35,6 ºC del día 03/07/2017
  • 50 - 34,5 ºC del día 02/07/2017
  • 51 - 31 ºC del día 01/07/2017
  • 52 - 33,6 ºC del día 30/06/2017
  • 53 - 37 ºC del día 29/06/2017
  • 54 - 37,6 ºC del día 28/06/2017
  • 55 - 38,7 ºC del día 27/06/2017
  • 56 - 40 ºC del día 26/06/2017
  • 57 - 38,7 ºC del día 25/06/2017
  • 58 - 43,4 ºC del día 24/06/2017
  • 59 - 43,5 ºC del día 23/06/2017
  • 60 - 39,6 ºC del día 22/06/2017

||Volver al inicio de la página||


Temperatura del suelo mínima

  • 1 - 23 ºC del día 20/08/2017
  • 2 - 23,2 ºC del día 19/08/2017
  • 3 - 22,8 ºC del día 18/08/2017
  • 4 - 23,6 ºC del día 17/08/2017
  • 5 - 23,2 ºC del día 16/08/2017
  • 6 - 21,1 ºC del día 15/08/2017
  • 7 - 20,4 ºC del día 14/08/2017
  • 8 - 19,5 ºC del día 13/08/2017
  • 9 - 19,1 ºC del día 12/08/2017
  • 10 - 18,2 ºC del día 11/08/2017
  • 11 - 20,3 ºC del día 10/08/2017
  • 12 - 21,8 ºC del día 09/08/2017
  • 13 - 23,8 ºC del día 08/08/2017
  • 14 - 24,5 ºC del día 07/08/2017
  • 15 - 24,9 ºC del día 06/08/2017
  • 16 - 23,1 ºC del día 05/08/2017
  • 17 - 22,7 ºC del día 04/08/2017
  • 18 - 22,7 ºC del día 03/08/2017
  • 19 - 25,7 ºC del día 02/08/2017
  • 20 - 24,4 ºC del día 01/08/2017
  • 21 - 21,8 ºC del día 31/07/2017
  • 22 - 21,6 ºC del día 30/07/2017
  • 23 - 20,2 ºC del día 29/07/2017
  • 24 - 21,9 ºC del día 28/07/2017
  • 25 - 22,1 ºC del día 27/07/2017
  • 26 - 23,2 ºC del día 26/07/2017
  • 27 - 22,4 ºC del día 25/07/2017
  • 28 - 20,4 ºC del día 24/07/2017
  • 29 - 23 ºC del día 23/07/2017
  • 30 - 21,5 ºC del día 22/07/2017
  • 31 - 23,7 ºC del día 21/07/2017
  • 32 - 22 ºC del día 20/07/2017
  • 33 - 22,1 ºC del día 19/07/2017
  • 34 - 22,3 ºC del día 18/07/2017
  • 35 - 19,1 ºC del día 17/07/2017
  • 36 - 21,3 ºC del día 16/07/2017
  • 37 - 21,3 ºC del día 15/07/2017
  • 38 - 25,3 ºC del día 14/07/2017
  • 39 - 24,2 ºC del día 13/07/2017
  • 40 - 20,9 ºC del día 12/07/2017
  • 41 - 20,5 ºC del día 11/07/2017
  • 42 - 20,4 ºC del día 10/07/2017
  • 43 - 19,9 ºC del día 09/07/2017
  • 44 - 20,4 ºC del día 08/07/2017
  • 45 - 20,6 ºC del día 07/07/2017
  • 46 - 23,1 ºC del día 06/07/2017
  • 47 - 19,4 ºC del día 05/07/2017
  • 48 - 17,8 ºC del día 04/07/2017
  • 49 - 16,6 ºC del día 03/07/2017
  • 50 - 16,1 ºC del día 02/07/2017
  • 51 - 14,8 ºC del día 01/07/2017
  • 52 - 19,5 ºC del día 30/06/2017
  • 53 - 21,8 ºC del día 29/06/2017
  • 54 - 22 ºC del día 28/06/2017
  • 55 - 22,1 ºC del día 27/06/2017
  • 56 - 21,3 ºC del día 26/06/2017
  • 57 - 20,9 ºC del día 25/06/2017
  • 58 - 20,4 ºC del día 24/06/2017
  • 59 - 20,1 ºC del día 23/06/2017
  • 60 - 19,3 ºC del día 22/06/2017

||Volver al inicio de la página||


Humedad del suelo máxima

  • 1 - 24,5 % del día 20/08/2017
  • 2 - 25,5 % del día 19/08/2017
  • 3 - 25,1 % del día 18/08/2017
  • 4 - 25,4 % del día 17/08/2017
  • 5 - 25,1 % del día 16/08/2017
  • 6 - 24,8 % del día 15/08/2017
  • 7 - 25 % del día 14/08/2017
  • 8 - 24,9 % del día 13/08/2017
  • 9 - 25,1 % del día 12/08/2017
  • 10 - 25,5 % del día 11/08/2017
  • 11 - 25,6 % del día 10/08/2017
  • 12 - 27 % del día 09/08/2017
  • 13 - 26,9 % del día 08/08/2017
  • 14 - 26,6 % del día 07/08/2017
  • 15 - 27,3 % del día 06/08/2017
  • 16 - 27,8 % del día 05/08/2017
  • 17 - 27,9 % del día 04/08/2017
  • 18 - 28,2 % del día 03/08/2017
  • 19 - 27,7 % del día 02/08/2017
  • 20 - 27 % del día 01/08/2017
  • 21 - 28,3 % del día 31/07/2017
  • 22 - 28,2 % del día 30/07/2017
  • 23 - 28,2 % del día 29/07/2017
  • 24 - 28,6 % del día 28/07/2017
  • 25 - 28,5 % del día 27/07/2017
  • 26 - 28,7 % del día 26/07/2017
  • 27 - 41,7 % del día 25/07/2017
  • 28 - 43,9 % del día 24/07/2017
  • 29 - 28,2 % del día 23/07/2017
  • 30 - 28,9 % del día 22/07/2017
  • 31 - 33,3 % del día 21/07/2017
  • 32 - 36,9 % del día 20/07/2017
  • 33 - 28,8 % del día 19/07/2017
  • 34 - 31,3 % del día 18/07/2017
  • 35 - 28,8 % del día 17/07/2017
  • 36 - 30,2 % del día 16/07/2017
  • 37 - 29,4 % del día 15/07/2017
  • 38 - 29,6 % del día 14/07/2017
  • 39 - 31 % del día 13/07/2017
  • 40 - 30,8 % del día 12/07/2017
  • 41 - 35,2 % del día 11/07/2017
  • 42 - 32,3 % del día 10/07/2017
  • 43 - 40,8 % del día 09/07/2017
  • 44 - 31,2 % del día 08/07/2017
  • 45 - 38,5 % del día 07/07/2017
  • 46 - 31,5 % del día 06/07/2017
  • 47 - 30,9 % del día 05/07/2017
  • 48 - 31,7 % del día 04/07/2017
  • 49 - 31,3 % del día 03/07/2017
  • 50 - 30,3 % del día 02/07/2017
  • 51 - 30,5 % del día 01/07/2017
  • 52 - 30,9 % del día 30/06/2017
  • 53 - 31,7 % del día 29/06/2017
  • 54 - 32,1 % del día 28/06/2017
  • 55 - 42 % del día 27/06/2017
  • 56 - 32,8 % del día 26/06/2017
  • 57 - 33,4 % del día 25/06/2017
  • 58 - 33,6 % del día 24/06/2017
  • 59 - 34,3 % del día 23/06/2017
  • 60 - 34,4 % del día 22/06/2017

||Volver al inicio de la página||


Humedad del suelo mínima

  • 1 - 16,3 % del día 20/08/2017
  • 2 - 16,5 % del día 19/08/2017
  • 3 - 16,5 % del día 18/08/2017
  • 4 - 16,4 % del día 17/08/2017
  • 5 - 16,3 % del día 16/08/2017
  • 6 - 16,4 % del día 15/08/2017
  • 7 - 16,4 % del día 14/08/2017
  • 8 - 16,4 % del día 13/08/2017
  • 9 - 16,5 % del día 12/08/2017
  • 10 - 16,6 % del día 11/08/2017
  • 11 - 16,8 % del día 10/08/2017
  • 12 - 16,9 % del día 09/08/2017
  • 13 - 17,1 % del día 08/08/2017
  • 14 - 17 % del día 07/08/2017
  • 15 - 17,1 % del día 06/08/2017
  • 16 - 17,3 % del día 05/08/2017
  • 17 - 17,1 % del día 04/08/2017
  • 18 - 17,1 % del día 03/08/2017
  • 19 - 17,4 % del día 02/08/2017
  • 20 - 17,5 % del día 01/08/2017
  • 21 - 17,5 % del día 31/07/2017
  • 22 - 17,4 % del día 30/07/2017
  • 23 - 17,6 % del día 29/07/2017
  • 24 - 17,7 % del día 28/07/2017
  • 25 - 17,8 % del día 27/07/2017
  • 26 - 17,9 % del día 26/07/2017
  • 27 - 18 % del día 25/07/2017
  • 28 - 18 % del día 24/07/2017
  • 29 - 18,1 % del día 23/07/2017
  • 30 - 18,2 % del día 22/07/2017
  • 31 - 18,2 % del día 21/07/2017
  • 32 - 18,3 % del día 20/07/2017
  • 33 - 18,2 % del día 19/07/2017
  • 34 - 18,5 % del día 18/07/2017
  • 35 - 18,4 % del día 17/07/2017
  • 36 - 18,6 % del día 16/07/2017
  • 37 - 18,7 % del día 15/07/2017
  • 38 - 18,8 % del día 14/07/2017
  • 39 - 18,9 % del día 13/07/2017
  • 40 - 19 % del día 12/07/2017
  • 41 - 19,1 % del día 11/07/2017
  • 42 - 19,2 % del día 10/07/2017
  • 43 - 19,1 % del día 09/07/2017
  • 44 - 18,9 % del día 08/07/2017
  • 45 - 19,2 % del día 07/07/2017
  • 46 - 19,4 % del día 06/07/2017
  • 47 - 19,4 % del día 05/07/2017
  • 48 - 19,4 % del día 04/07/2017
  • 49 - 19,4 % del día 03/07/2017
  • 50 - 19,3 % del día 02/07/2017
  • 51 - 19,5 % del día 01/07/2017
  • 52 - 19,7 % del día 30/06/2017
  • 53 - 20 % del día 29/06/2017
  • 54 - 20 % del día 28/06/2017
  • 55 - 20,3 % del día 27/06/2017
  • 56 - 20,2 % del día 26/06/2017
  • 57 - 20,4 % del día 25/06/2017
  • 58 - 20,4 % del día 24/06/2017
  • 59 - 20,5 % del día 23/06/2017
  • 60 - 20,5 % del día 22/06/2017

 

|| Temperatura Ambiente|| Humedad relativa|| Velocidad y dirección del viento|| Precipitación|| Radiación Solar Global y PAR|| Presión atmosférica|| Más información|| Volver a la página principal|| Volver al inicio de la página||


Estación Meteorológica de la Universidad de Murcia
http://estacion.um.es/
Informacion actualizada a: 21/08/2017 a las 17:43:00